Location: McFarlands Corners
(41.4117°N, 81.3382°W)
Time: 18:27:55
(UTC+00:00)

Vanguard 1 Rocket - Pass Details

Date: 16 February 2026
Orbit: 653 x 4214 km, 34.3° (Epoch: 8 March)

Event Time Altitude Azimuth Distance (km) Brightness Sun altitude
Rises 21:10:42 0° 261° (W) 5,086 12.4 17.7°
Reaches altitude 10° 21:13:23 10° 259° (W) 4,435 12.4 17.3°
Maximum altitude 21:26:44 69° 180° (S) 3,207 10.6 15.2°
Drops below altitude 10° 21:50:39 10° 104° (ESE) 7,345 11.6 11.3°
Sets 21:56:45 0° 102° (ESE) 8,455 11.9 10.3°
